Location: Centerville
(32.8776°N, 96.6203°W)
Time: 05:34:53
(UTC+00:00)

Centaur AC-125 - Visible Passes

Search period start: 18 October 2021 00:00
Search period end: 28 October 2021 00:00
Orbit: 354 x 24300 km, 26.7° (Epoch: 16 October)

Date Brightness Start Highest point End Pass type
(mag) Time Alt. Az. Time Alt. Az. Time Alt. Az.
19 Oct 8.5 12:05:56 10° S 16:29:28 64° SE 18:01:46 10° E visible
20 Oct 6.2 00:52:49 10° WNW 01:20:34 25° WSW 01:27:31 10° S visible
20 Oct 9.2 10:12:29 10° ESE 13:17:24 26° E 14:41:36 10° ENE visible
22 Oct 8.5 10:48:31 10° SSE 14:53:22 49° ESE 16:35:24 10° E visible
23 Oct 11.1 11:36:12 10° E 11:57:17 10° E 12:15:59 10° E visible
25 Oct 6.5 01:19:11 10° W 01:33:34 16° WSW 01:39:32 10° SSW visible
25 Oct 8.7 09:44:55 10° SE 13:26:53 32° E 15:03:02 10° ENE visible
27 Oct 8.4 10:59:19 10° S 15:04:57 56° ESE 16:52:08 10° E visible
